Location: Central Falls
(41.8900°N, 71.3929°W)
Time: 22:02:15
(UTC+00:00)

Transit 4A - Visible Passes

Search period start: 06 December 2023 00:00
Search period end: 16 December 2023 00:00
Orbit: 864 x 979 km, 66.8° (Epoch: 06 December)

Date Brightness Start Highest point End Pass type
(mag) Time Alt. Az. Time Alt. Az. Time Alt. Az.
06 Dec 10.1 00:58:02 10° SW 00:59:26 17° SW 00:59:26 17° SW visible
06 Dec 9.6 08:21:08 27° ENE 08:21:08 27° ENE 08:25:21 10° ESE visible
06 Dec 7.9 10:04:41 35° NW 10:06:59 56° WSW 10:12:43 10° S visible
06 Dec 9.0 23:21:53 10° S 23:25:48 29° SE 23:25:48 29° SE visible
07 Dec 10.1 01:07:29 10° SW 01:09:22 20° WSW 01:09:22 20° WSW visible
07 Dec 9.2 08:30:53 35° ENE 08:30:53 35° ENE 08:35:08 10° ESE visible
07 Dec 8.3 10:14:26 32° W 10:15:56 38° WSW 10:21:17 10° S visible
07 Dec 8.3 23:30:19 10° S 23:35:41 46° SE 23:35:41 46° SE visible
08 Dec 10.1 01:17:10 10° WSW 01:19:14 20° W 01:19:14 20° W visible
08 Dec 8.9 08:40:42 40° ESE 08:40:42 40° ESE 08:44:41 10° SE visible
08 Dec 8.8 10:24:16 25° W 10:24:49 25° WSW 10:29:29 10° SSW visible
08 Dec 9.8 21:59:34 10° ESE 22:00:11 10° E 22:00:48 10° E visible
08 Dec 7.8 23:39:04 10° SSW 23:45:25 70° ESE 23:45:29 69° ESE visible
09 Dec 10.3 01:27:07 10° W 01:29:03 17° W 01:29:03 17° W visible
09 Dec 8.9 08:50:34 37° SE 08:50:34 37° SE 08:53:59 10° SE visible
09 Dec 9.3 10:34:08 16° WSW 10:34:08 16° WSW 10:37:08 10° SW visible
09 Dec 9.5 22:05:07 10° SE 22:08:56 17° ESE 22:11:40 13° ENE visible
09 Dec 7.9 23:48:06 10° SSW 23:54:31 84° WNW 23:55:13 72° N visible
10 Dec 10.5 01:37:20 10° W 01:38:46 14° WNW 01:38:46 14° WNW visible
10 Dec 9.2 09:00:29 27° SSE 09:00:29 27° SSE 09:03:01 10° SSE visible
10 Dec 9.0 22:12:43 10° SSE 22:17:45 25° ESE 22:21:19 16° ENE visible
10 Dec 8.4 23:57:22 10° SW 00:03:41 60° NW 00:04:52 51° NNW visible
11 Dec 10.7 01:47:55 10° WNW 01:48:24 11° WNW 01:48:24 11° WNW visible
11 Dec 9.7 09:10:25 18° S 09:10:25 18° S 09:11:49 10° S visible
11 Dec 8.6 22:20:54 10° S 22:26:39 37° ESE 22:30:53 17° NE visible
12 Dec 8.9 00:06:54 10° WSW 00:12:55 43° NW 00:14:25 37° NNW visible
12 Dec 8.2 22:29:26 10° S 22:35:37 54° ESE 22:40:21 17° NE visible
13 Dec 9.4 00:16:40 10° WSW 00:22:16 31° NW 00:23:53 28° NNW visible
13 Dec 7.9 22:38:17 10° SSW 22:44:40 78° ESE 22:49:45 17° NNE visible
14 Dec 9.8 00:26:42 10° W 00:31:41 23° NW 00:33:17 21° NNW visible
14 Dec 8.1 22:47:23 10° SW 22:53:47 75° WNW 22:59:04 16° NNE visible
15 Dec 10.0 00:37:01 10° W 00:41:12 18° NW 00:42:35 17° NNW visible
15 Dec 8.6 22:56:44 10° SW 23:02:58 53° NW 23:08:19 14° NNE visible
